Change the Weather History Date:

Saturday, October 6, 2012

  Actual Average Record
Temperature  
Mean Temperature 32 °F -  
Max Temperature 42 °F 68 °F 89 °F (2007)
Min Temperature 23 °F 43 °F 23 °F (2000)
Degree Days  
Heating Degree Days 32    
Moisture  
Dew Point 21 °F    
Average Humidity 59    
Maximum Humidity 80    
Minimum Humidity 39    
Precipitation  
Precipitation 0.00 in - - ()
Sea Level Pressure  
Sea Level Pressure 30.27 in    
Wind  
Wind Speed 12 mph (NW)    
Max Wind Speed 18 mph    
Max Gust Speed 24 mph    
Visibility 10 miles    
Events      
Averages and records for this station are not official NWS values.
T = Trace of Precipitation, MM = Missing Value Source: NWS Daily Summary

Daily Weather History Graph

Daily Weather History Graph

Search for Another Location

Airport or City:

Trip Planner

Search our weather history database for the weather conditions in past years. The results will help you decide how hot, cold, wet, or windy it might be!

Date:

Astronomy

Oct. 06, 2012 Rise Set
Actual Time 7:24 AM CDT 6:52 PM CDT
Civil Twilight 6:56 AM CDT 7:20 PM CDT
Nautical Twilight 6:23 AM CDT 7:53 PM CDT
Astronomical Twilight 5:50 AM CDT 8:26 PM CDT
Moon 11:03 PM CDT (10/6) 1:25 PM CDT (10/6)
Length of Visible Light 12h 24m
Length of Day
11h 28m
Waning Gibbous, 65% of the Moon is Illuminated
Oct 6
Waning Gibbous
Oct 8
Last Quarter
Oct 15
New
Oct 21
First Quarter
Oct 29
Full

Hourly Weather History & Observations

Time (CDT) Temp. Windchill Dew Point Humidity Pressure Visibility Wind Dir Wind Speed Gust Speed Precip Events Conditions
12:15 AM 32.0 °F 22.5 °F 17.6 °F 55% 30.25 in 10.0 mi NW 12.7 mph - N/A   Clear
12:35 AM 32.0 °F 22.5 °F 17.6 °F 55% 30.26 in 10.0 mi NW 12.7 mph - N/A   Clear
12:55 AM 32.0 °F 22.5 °F 17.6 °F 55% 30.26 in 10.0 mi NW 12.7 mph - N/A   Clear
1:15 AM 32.0 °F 22.1 °F 17.6 °F 55% 30.25 in 10.0 mi NW 13.8 mph - N/A   Clear
1:35 AM 30.2 °F 20.2 °F 17.6 °F 60% 30.25 in 10.0 mi NW 12.7 mph - N/A   Clear
1:55 AM 30.2 °F 20.2 °F 17.6 °F 60% 30.26 in 10.0 mi NW 12.7 mph - N/A   Clear
2:15 AM 28.4 °F 18.0 °F 17.6 °F 64% 30.25 in 10.0 mi NW 12.7 mph - N/A   Clear
2:35 AM 28.4 °F 18.0 °F 19.4 °F 69% 30.26 in 10.0 mi NW 12.7 mph - N/A   Clear
2:55 AM 28.4 °F 18.5 °F 19.4 °F 69% 30.25 in 10.0 mi WNW 11.5 mph - N/A   Clear
3:15 AM 26.6 °F 16.2 °F 17.6 °F 69% 30.25 in 10.0 mi WNW 11.5 mph - N/A   Clear
3:35 AM 24.8 °F 16.1 °F 17.6 °F 74% 30.25 in 10.0 mi WNW 8.1 mph - N/A   Clear
3:55 AM 23.0 °F 12.4 °F 17.6 °F 80% 30.25 in 10.0 mi WNW 10.4 mph - N/A   Clear
4:35 AM 26.6 °F 16.2 °F 19.4 °F 74% 30.25 in 10.0 mi WNW 11.5 mph - N/A   Clear
4:55 AM 24.8 °F 15.3 °F 17.6 °F 74% 30.26 in 10.0 mi West 9.2 mph - N/A   Clear
5:15 AM 24.8 °F 14.0 °F 19.4 °F 80% 30.26 in 10.0 mi West 11.5 mph - N/A   Partly Cloudy
5:35 AM 26.6 °F 15.7 °F 19.4 °F 74% 30.25 in 10.0 mi WNW 12.7 mph - N/A   Mostly Cloudy
5:55 AM 26.6 °F 16.2 °F 19.4 °F 74% 30.26 in - West 11.5 mph - N/A   Overcast
6:15 AM 24.8 °F 14.6 °F 19.4 °F 80% 30.28 in 10.0 mi WNW 10.4 mph - N/A   Scattered Clouds
6:35 AM 24.8 °F 15.3 °F 19.4 °F 80% 30.29 in 10.0 mi WNW 9.2 mph - N/A   Partly Cloudy
6:55 AM 24.8 °F 15.3 °F 19.4 °F 80% 30.29 in 10.0 mi WNW 9.2 mph - N/A   Mostly Cloudy
7:15 AM 26.6 °F 16.2 °F 21.2 °F 80% 30.29 in 10.0 mi West 11.5 mph - N/A   Overcast
7:35 AM 28.4 °F 19.1 °F 21.2 °F 74% 30.30 in 10.0 mi West 10.4 mph - N/A   Overcast
7:55 AM 28.4 °F 18.5 °F 23.0 °F 80% 30.30 in 10.0 mi WNW 11.5 mph - N/A   Overcast
8:15 AM 30.2 °F 20.2 °F 23.0 °F 75% 30.30 in 10.0 mi WNW 12.7 mph - N/A   Overcast
8:35 AM 32.0 °F 23.0 °F 23.0 °F 69% 30.30 in 10.0 mi NW 11.5 mph - N/A   Overcast
9:15 AM 33.8 °F 26.4 °F 23.0 °F 65% 30.30 in 10.0 mi NW 9.2 mph - N/A   Overcast
9:35 AM 33.8 °F 23.9 °F 23.0 °F 65% 30.30 in 10.0 mi NNW 15.0 mph - N/A   Overcast
9:55 AM 35.6 °F 26.2 °F 24.8 °F 65% 30.30 in 10.0 mi NW 15.0 mph - N/A   Overcast
10:15 AM 35.6 °F 26.6 °F 24.8 °F 65% 30.30 in 10.0 mi NNW 13.8 mph - N/A   Overcast
10:35 AM 37.4 °F 27.8 °F 24.8 °F 60% 30.30 in 10.0 mi North 17.3 mph 23.0 mph N/A   Overcast
10:55 AM 37.4 °F 27.5 °F 24.8 °F 60% 30.31 in 10.0 mi North 18.4 mph - N/A   Overcast
11:15 AM 37.4 °F 28.2 °F 24.8 °F 60% 30.31 in 10.0 mi NNW 16.1 mph - N/A   Overcast
11:35 AM 37.4 °F 28.5 °F 24.8 °F 60% 30.31 in 10.0 mi NNW 15.0 mph - N/A   Overcast
11:55 AM 39.2 °F 30.8 °F 24.8 °F 56% 30.31 in 10.0 mi NNW 15.0 mph - N/A   Overcast
12:15 PM 39.2 °F 31.2 °F 24.8 °F 56% 30.30 in 10.0 mi NNW 13.8 mph 20.7 mph N/A   Overcast
12:35 PM 41.0 °F 33.1 °F 24.8 °F 53% 30.30 in 10.0 mi North 15.0 mph - N/A   Overcast
1:15 PM 42.8 °F 35.1 °F 24.8 °F 49% 30.29 in 10.0 mi NW 16.1 mph 21.9 mph N/A   Mostly Cloudy
1:35 PM 42.8 °F 35.8 °F 24.8 °F 49% 30.29 in 10.0 mi NNW 13.8 mph - N/A   Mostly Cloudy
1:55 PM 42.8 °F 34.8 °F 23.0 °F 46% 30.29 in 10.0 mi NW 17.3 mph 24.2 mph N/A   Overcast
2:15 PM 41.0 °F 34.7 °F 23.0 °F 49% 30.28 in 10.0 mi NNW 10.4 mph 18.4 mph N/A   Overcast
2:35 PM 41.0 °F 32.8 °F 23.0 °F 49% 30.28 in 10.0 mi NW 16.1 mph - N/A   Overcast
2:55 PM 41.0 °F 34.3 °F 23.0 °F 49% 30.28 in - NW 11.5 mph - N/A   Overcast
3:15 PM 42.8 °F 35.8 °F 23.0 °F 46% 30.27 in 10.0 mi NW 13.8 mph 20.7 mph N/A   Overcast
3:35 PM 42.8 °F 36.2 °F 23.0 °F 46% 30.27 in 10.0 mi NW 12.7 mph 20.7 mph N/A   Scattered Clouds
3:55 PM 42.8 °F 35.8 °F 21.2 °F 42% 30.26 in 10.0 mi NW 13.8 mph - N/A   Partly Cloudy
4:15 PM 41.0 °F 34.7 °F 21.2 °F 45% 30.26 in 10.0 mi NNW 10.4 mph 19.6 mph N/A   Clear
4:35 PM 42.8 °F 35.4 °F 21.2 °F 42% 30.26 in 10.0 mi NNW 15.0 mph 20.7 mph N/A   Scattered Clouds
4:55 PM 41.0 °F 35.8 °F 21.2 °F 45% 30.25 in 10.0 mi NNW 8.1 mph 13.8 mph N/A   Scattered Clouds
5:15 PM 42.8 °F 36.2 °F 19.4 °F 39% 30.26 in 10.0 mi NNW 12.7 mph - N/A   Scattered Clouds
5:35 PM 42.8 °F 36.6 °F 21.2 °F 42% 30.26 in 10.0 mi North 11.5 mph - N/A   Mostly Cloudy
5:55 PM 42.8 °F 36.6 °F 19.4 °F 39% 30.25 in 10.0 mi NW 11.5 mph - N/A   Overcast
6:15 PM 42.8 °F 36.6 °F 19.4 °F 39% 30.25 in 10.0 mi NW 11.5 mph - N/A   Mostly Cloudy
6:35 PM 39.2 °F 34.2 °F 19.4 °F 45% 30.26 in 10.0 mi NNW 6.9 mph - N/A   Scattered Clouds
6:55 PM 37.4 °F 32.1 °F 19.4 °F 48% 30.26 in 10.0 mi North 6.9 mph - N/A   Scattered Clouds
7:15 PM 37.4 °F 33.8 °F 19.4 °F 48% 30.26 in 10.0 mi North 4.6 mph - N/A   Partly Cloudy
7:35 PM 35.6 °F 31.7 °F 19.4 °F 52% 30.26 in 10.0 mi North 4.6 mph - N/A   Clear
7:55 PM 35.6 °F 30.7 °F 19.4 °F 52% 30.27 in 10.0 mi North 5.8 mph - N/A   Clear
8:15 PM 33.8 °F 27.7 °F 21.2 °F 60% 30.27 in 10.0 mi North 6.9 mph - N/A   Clear
8:35 PM 33.8 °F 28.6 °F 19.4 °F 56% 30.27 in 10.0 mi North 5.8 mph - N/A   Clear
8:55 PM 33.8 °F 28.6 °F 21.2 °F 60% 30.28 in 10.0 mi North 5.8 mph - N/A   Clear
9:15 PM 33.8 °F 28.6 °F 19.4 °F 56% 30.27 in 10.0 mi North 5.8 mph - N/A   Clear
9:35 PM 33.8 °F 29.6 °F 19.4 °F 56% 30.27 in 10.0 mi North 4.6 mph - N/A   Clear
9:55 PM 33.8 °F 29.6 °F 19.4 °F 56% 30.28 in 10.0 mi North 4.6 mph - N/A   Clear
10:15 PM 33.8 °F 28.6 °F 19.4 °F 56% 30.28 in 10.0 mi North 5.8 mph - N/A   Clear
11:15 PM 32.0 °F 27.5 °F 19.4 °F 60% 30.28 in 10.0 mi NNW 4.6 mph - N/A   Clear
11:35 PM 32.0 °F 26.4 °F 19.4 °F 60% 30.28 in 10.0 mi NNW 5.8 mph - N/A   Clear
11:55 PM 30.2 °F 23.4 °F 19.4 °F 64% 30.27 in 10.0 mi NNW 6.9 mph - N/A   Clear